User: anonymous   Login
Location: Amos
(48.5670°N, 78.1170°W)
Time: 05:48:27
(UTC-05:00)
Language:

CUTE 1.7 + AOD 2 - Orbit

View from above orbital plane
View from above orbital plane
View from above satellite
View from above satellite

Ground track
Ground track

The orbit data is extracted from the following two-line orbital elements,

1 32785U 08021C   20019.14890107  .00000147  00000-0  21456-4 0  9992
2 32785  97.5616  13.8851 0011545 272.2567  87.7328 14.88405138635588
Epoch (UTC): 19 January 2020 03:34:25
Eccentricity: 0.0011545
inclination: 97.5616°
perigee height: 595 km
apogee height: 611 km
right ascension of ascending node: 13.8851°
argument of perigee: 272.2567°
revolutions per day: 14.88405138
mean anomaly at epoch: 87.7328°
orbit number at epoch: 63558

The dashed part of the orbit path shows where the satellite is in the earth's shadow,  

DLR